• In Netherlands
  • List of Countries
  • For 7 days
  • Water Temperature
  • Satellite Maps
  • Weather Map
  • Weather Widgets
  • user-avatar
    Login

    Hourly Weather Santiago del Estero

    Today, 23 October, Monday

    Time Temperature Precipitation Wind Pressure Humidity
    00:00 +18°C° 0 mm 4 mps 745 mmHg 40%
    01:00 +17°C° 0 mm 4 mps 745 mmHg 43%
    02:00 +17°C° 0 mm 4 mps 744 mmHg 46%
    03:00 +15°C° 0 mm 4 mps 744 mmHg 48%
    04:00 +15°C° 0 mm 4 mps 744 mmHg 50%
    05:00 +15°C° 0 mm 4 mps 744 mmHg 53%
    06:00 +16°C° 0 mm 5 mps 744 mmHg 48%
    07:00 +19°C° 0 mm 6 mps 744 mmHg 43%
    08:00 +21°C° 0 mm 8 mps 745 mmHg 38%
    09:00 +23°C° 0 mm 7 mps 744 mmHg 35%
    10:00 +24°C° 0 mm 7 mps 744 mmHg 32%
    11:00 +27°C° 0 mm 7 mps 743 mmHg 28%
    12:00 +29°C° 0 mm 7 mps 742 mmHg 27%
    13:00 +30°C° 0 mm 6 mps 742 mmHg 25%
    14:00 +32°C° 0 mm 6 mps 741 mmHg 23%
    15:00 +32°C° 0 mm 6 mps 740 mmHg 24%
    16:00 +32°C° 0 mm 6 mps 740 mmHg 24%
    17:00 +32°C° 0 mm 6 mps 739 mmHg 24%
    18:00 +29°C° 0 mm 5 mps 739 mmHg 28%
    19:00 +27°C° 0 mm 4 mps 740 mmHg 31%
    20:00 +25°C° 0 mm 3 mps 740 mmHg 34%
    21:00 +24°C° 0 mm 3 mps 740 mmHg 35%
    22:00 +23°C° 0 mm 4 mps 741 mmHg 35%
    23:00 +22°C° 0 mm 4 mps 741 mmHg 36%

    Tomorrow, 24 October, Tuesday

    Time Temperature Precipitation Wind Pressure Humidity
    00:00 +21°C° 0 mm 3 mps 741 mmHg 37%
    01:00 +20°C° 0 mm 3 mps 740 mmHg 39%
    02:00 +20°C° 0 mm 3 mps 740 mmHg 40%
    03:00 +19°C° 0 mm 3 mps 740 mmHg 42%
    04:00 +19°C° 0 mm 3 mps 740 mmHg 44%
    05:00 +18°C° 0 mm 2 mps 740 mmHg 46%
    06:00 +20°C° 0 mm 3 mps 740 mmHg 43%
    07:00 +22°C° 0 mm 3 mps 741 mmHg 40%
    08:00 +23°C° 0 mm 4 mps 741 mmHg 37%
    09:00 +27°C° 0 mm 4 mps 741 mmHg 35%
    10:00 +30°C° 0 mm 5 mps 740 mmHg 34%
    11:00 +33°C° 0 mm 5 mps 740 mmHg 32%
    12:00 +35°C° 0 mm 5 mps 740 mmHg 30%
    13:00 +36°C° 0 mm 6 mps 739 mmHg 29%
    14:00 +39°C° 0 mm 6 mps 738 mmHg 27%
    15:00 +37°C° 0 mm 5 mps 737 mmHg 27%
    16:00 +37°C° 0 mm 5 mps 737 mmHg 27%
    17:00 +37°C° 0 mm 5 mps 736 mmHg 27%
    18:00 +35°C° 0 mm 5 mps 737 mmHg 31%
    19:00 +34°C° 0 mm 4 mps 737 mmHg 34%
    20:00 +32°C° 0 mm 4 mps 738 mmHg 37%
    21:00 +30°C° 0 mm 4 mps 738 mmHg 38%
    22:00 +29°C° 0 mm 5 mps 738 mmHg 39%
    23:00 +29°C° 0 mm 5 mps 739 mmHg 40%

    Day after tomorrow, 25 October, Wednesday

    Time Temperature Precipitation Wind Pressure Humidity
    00:00 +28°C° 0.4 mm 4 mps 738 mmHg 46%
    01:00 +27°C° 0.4 mm 4 mps 738 mmHg 51%
    02:00 +26°C° 0.4 mm 3 mps 737 mmHg 56%
    03:00 +26°C° 1.1 mm 3 mps 737 mmHg 62%
    04:00 +25°C° 1.1 mm 3 mps 737 mmHg 68%
    05:00 +24°C° 1.1 mm 2 mps 737 mmHg 74%
    06:00 +25°C° 1.6 mm 3 mps 738 mmHg 72%
    07:00 +25°C° 1.6 mm 4 mps 738 mmHg 71%
    08:00 +26°C° 1.6 mm 5 mps 739 mmHg 69%
    09:00 +26°C° 1.6 mm 5 mps 739 mmHg 70%
    10:00 +27°C° 1.6 mm 5 mps 739 mmHg 71%
    11:00 +27°C° 1.6 mm 5 mps 739 mmHg 71%
    12:00 +29°C° 0.3 mm 5 mps 739 mmHg 65%
    13:00 +30°C° 0.3 mm 5 mps 738 mmHg 58%
    14:00 +33°C° 0.3 mm 4 mps 737 mmHg 51%
    15:00 +33°C° 0 mm 4 mps 737 mmHg 50%
    16:00 +34°C° 0 mm 3 mps 736 mmHg 48%
    17:00 +34°C° 0 mm 3 mps 736 mmHg 47%
    18:00 +31°C° 0.1 mm 3 mps 736 mmHg 53%
    19:00 +29°C° 0.1 mm 3 mps 737 mmHg 59%
    20:00 +27°C° 0.1 mm 3 mps 737 mmHg 65%
    21:00 +27°C° 0.1 mm 2 mps 737 mmHg 68%
    22:00 +26°C° 0.1 mm 2 mps 737 mmHg 71%
    23:00 +25°C° 0.1 mm 2 mps 738 mmHg 75%

    26 October, Thursday

    Time Temperature Precipitation Wind Pressure Humidity
    00:00 +25°C° 0.7 mm 2 mps 737 mmHg 78%
    01:00 +24°C° 0.7 mm 1 mps 737 mmHg 80%
    02:00 +24°C° 0.7 mm 1 mps 737 mmHg 83%
    03:00 +23°C° 0.2 mm 1 mps 737 mmHg 85%
    04:00 +23°C° 0.2 mm 1 mps 737 mmHg 88%
    05:00 +23°C° 0.2 mm 1 mps 737 mmHg 90%
    06:00 +24°C° 0 mm 1 mps 738 mmHg 84%
    07:00 +25°C° 0 mm 1 mps 738 mmHg 78%
    08:00 +26°C° 0 mm 1 mps 739 mmHg 71%
    09:00 +28°C° 0 mm 1 mps 739 mmHg 64%
    10:00 +30°C° 0 mm 1 mps 738 mmHg 57%
    11:00 +32°C° 0 mm 2 mps 738 mmHg 50%
    12:00 +34°C° 0 mm 2 mps 737 mmHg 47%
    13:00 +35°C° 0 mm 3 mps 737 mmHg 44%
    14:00 +36°C° 0 mm 3 mps 736 mmHg 41%
    15:00 +36°C° 0 mm 3 mps 736 mmHg 41%
    16:00 +36°C° 0 mm 3 mps 735 mmHg 41%
    17:00 +36°C° 0 mm 4 mps 735 mmHg 42%
    18:00 +34°C° 0 mm 3 mps 735 mmHg 46%
    19:00 +32°C° 0 mm 2 mps 736 mmHg 51%
    20:00 +30°C° 0 mm 2 mps 737 mmHg 56%
    21:00 +30°C° 0 mm 2 mps 737 mmHg 58%
    22:00 +29°C° 0 mm 1 mps 737 mmHg 61%
    23:00 +29°C° 0 mm 1 mps 737 mmHg 63%

    27 October, Friday

    Time Temperature Precipitation Wind Pressure Humidity
    00:00 +28°C° 0 mm 1 mps 737 mmHg 66%
    01:00 +27°C° 0 mm 1 mps 737 mmHg 69%
    02:00 +27°C° 0 mm 1 mps 737 mmHg 71%
    03:00 +26°C° 0.6 mm 3 mps 737 mmHg 74%
    04:00 +25°C° 0.6 mm 4 mps 738 mmHg 77%
    05:00 +23°C° 0.6 mm 6 mps 739 mmHg 80%
    06:00 +24°C° 0.1 mm 6 mps 740 mmHg 76%
    07:00 +25°C° 0.1 mm 5 mps 741 mmHg 73%
    08:00 +26°C° 0.1 mm 5 mps 742 mmHg 69%
    09:00 +28°C° 0 mm 5 mps 742 mmHg 61%
    10:00 +30°C° 0 mm 5 mps 742 mmHg 54%
    11:00 +32°C° 0 mm 4 mps 742 mmHg 46%
    12:00 +33°C° 0 mm 4 mps 741 mmHg 42%
    13:00 +34°C° 0 mm 4 mps 740 mmHg 38%
    14:00 +35°C° 0 mm 4 mps 740 mmHg 34%
    15:00 +35°C° 0 mm 4 mps 739 mmHg 33%
    16:00 +34°C° 0 mm 4 mps 739 mmHg 33%
    17:00 +34°C° 0 mm 4 mps 738 mmHg 32%
    18:00 +33°C° 0 mm 4 mps 739 mmHg 35%
    19:00 +30°C° 0 mm 3 mps 739 mmHg 38%
    20:00 +28°C° 0 mm 3 mps 740 mmHg 41%
    21:00 +28°C° 0 mm 3 mps 740 mmHg 44%
    22:00 +27°C° 0 mm 3 mps 740 mmHg 46%
    23:00 +26°C° 0 mm 3 mps 740 mmHg 48%

    28 October, Saturday

    Time Temperature Precipitation Wind Pressure Humidity
    00:00 +25°C° 0 mm 3 mps 739 mmHg 49%
    01:00 +25°C° 0 mm 3 mps 739 mmHg 51%
    02:00 +24°C° 0 mm 3 mps 738 mmHg 52%
    03:00 +24°C° 0 mm 3 mps 738 mmHg 54%
    04:00 +22°C° 0 mm 3 mps 739 mmHg 57%
    05:00 +22°C° 0 mm 3 mps 739 mmHg 59%
    06:00 +22°C° 0 mm 4 mps 739 mmHg 59%
    07:00 +22°C° 0 mm 4 mps 739 mmHg 59%
    08:00 +22°C° 0 mm 5 mps 739 mmHg 58%
    09:00 +25°C° 0 mm 5 mps 739 mmHg 54%
    10:00 +26°C° 0 mm 5 mps 738 mmHg 50%
    11:00 +28°C° 0 mm 6 mps 737 mmHg 46%
    12:00 +29°C° 0 mm 6 mps 736 mmHg 42%
    13:00 +32°C° 0 mm 6 mps 735 mmHg 39%
    14:00 +34°C° 0 mm 6 mps 734 mmHg 35%
    15:00 +34°C° 0 mm 6 mps 733 mmHg 35%
    16:00 +34°C° 0 mm 6 mps 732 mmHg 34%
    17:00 +35°C° 0 mm 6 mps 731 mmHg 33%
    18:00 +33°C° 0.1 mm 6 mps 732 mmHg 36%
    19:00 +30°C° 0.1 mm 5 mps 732 mmHg 38%
    20:00 +29°C° 0.1 mm 4 mps 732 mmHg 40%
    21:00 +28°C° 0.1 mm 5 mps 732 mmHg 40%
    22:00 +27°C° 0.1 mm 5 mps 732 mmHg 40%
    23:00 +27°C° 0.1 mm 5 mps 732 mmHg 40%

    29 October, Sunday

    Time Temperature Precipitation Wind Pressure Humidity
    00:00 +26°C° 0.6 mm 5 mps 732 mmHg 47%
    01:00 +25°C° 0.6 mm 5 mps 731 mmHg 53%
    02:00 +23°C° 0.6 mm 5 mps 731 mmHg 59%
    03:00 +22°C° 0 mm 4 mps 731 mmHg 62%
    04:00 +22°C° 0 mm 4 mps 731 mmHg 66%
    05:00 +21°C° 0 mm 3 mps 732 mmHg 69%
    06:00 +24°C° 0.1 mm 3 mps 732 mmHg 65%
    07:00 +25°C° 0.1 mm 2 mps 733 mmHg 61%
    08:00 +27°C° 0.1 mm 1 mps 733 mmHg 58%
    09:00 +29°C° 0.1 mm 2 mps 734 mmHg 51%
    10:00 +31°C° 0.1 mm 2 mps 734 mmHg 45%
    11:00 +35°C° 0.1 mm 2 mps 734 mmHg 39%
    12:00 +35°C° 0 mm 4 mps 733 mmHg 32%
    13:00 +36°C° 0 mm 7 mps 733 mmHg 24%
    14:00 +38°C° 0 mm 9 mps 733 mmHg 17%
    15:00 +37°C° 0 mm 9 mps 734 mmHg 18%
    16:00 +35°C° 0 mm 9 mps 734 mmHg 19%
    17:00 +34°C° 0 mm 9 mps 735 mmHg 19%
    18:00 +29°C° 0 mm 9 mps 736 mmHg 27%
    19:00 +26°C° 0 mm 9 mps 738 mmHg 34%
    20:00 +21°C° 0 mm 9 mps 740 mmHg 41%
    21:00 +20°C° 0 mm 8 mps 741 mmHg 41%
    22:00 +18°C° 0 mm 7 mps 742 mmHg 41%
    23:00 +17°C° 0 mm 5 mps 743 mmHg 41%
    Show more